GW1476 Weather Reports


time (UTC)temp
C
wind
direction
speed
KPH
gust
KPH
rain 1hr
cm
rain 24hr
cm
rain mn
cm
humidity
%
barometer
mb
20260901204528 35 68 4.8 8.0 0.00 0.00 0.00 59 1020.6
20260901203922 35 23 4.8 8.0 0.00 0.00 0.00 59 1020.6
20260901203314 34 0 4.8 9.7 0.00 0.00 0.00 59 1020.6
20260901202136 36 293 4.8 8.0 0.00 0.00 0.00 55 1020.6
20260901201524 36 0 9.7 9.7 0.00 0.00 0.00 54 1020.6
20260901200908 36 0 6.4 8.0 0.00 0.00 0.00 53 1020.6
20260901200323 36 0 3.2 6.4 0.00 0.00 0.00 56 1020.6
20260901195747 36 338 3.2 8.0 0.00 0.00 0.00 56 1020.6
20260901195146 36 0 3.2 9.7 0.00 0.00 0.00 57 1020.6
20260901194511 36 0 12.9 12.9 0.00 0.00 0.00 55 1020.6
20260901193915 35 45 6.4 6.4 0.00 0.00 0.00 56 1020.6
20260901193312 36 225 0.0 6.4 0.00 0.00 0.00 56 1020.6
20260901192710 36 0 4.8 6.4 0.00 0.00 0.00 54 1020.6
20260901191529 38 203 4.8 6.4 0.00 0.00 0.00 51 1020.9
20260901190909 37 203 1.6 6.4 0.00 0.00 0.00 54 1020.9
20260901190310 37 158 3.2 3.2 0.00 0.00 0.00 56 1020.9
20260901185716 37 315 0.0 6.4 0.00 0.00 0.00 54 1020.9
20260901185125 38 0 1.6 3.2 0.00 0.00 0.00 54 1020.9
20260901184513 36 45 6.4 6.4 0.00 0.00 0.00 57 1020.9
20260901183945 37 0 4.8 9.7 0.00 0.00 0.00 56 1021.3
20260901183325 37 113 1.6 4.8 0.00 0.00 0.00 56 1021.6
20260901182718 36 23 3.2 4.8 0.00 0.00 0.00 57 1021.6
20260901182138 36 45 3.2 4.8 0.00 0.00 0.00 59 1021.6
20260901180914 36 90 1.6 6.4 0.00 0.00 0.00 59 1021.6
20260901180342 36 113 6.4 12.9 0.00 0.00 0.00 59 1022.0
20260901175128 35 248 1.6 6.4 0.00 0.00 0.00 62 1022.0
20260901174519 36 315 6.4 9.7 0.00 0.00 0.00 61 1022.0
20260901173942 36 315 4.8 11.3 0.00 0.00 0.00 60 1022.0
20260901173345 35 45 6.4 6.4 0.00 0.00 0.00 63 1022.0
20260901172735 35 23 3.2 3.2 0.00 0.00 0.00 64 1022.0
20260901171514 35 68 6.4 9.7 0.00 0.00 0.00 63 1022.3
20260901170924 35 68 3.2 9.7 0.00 0.00 0.00 65 1022.3
20260901170319 35 270 6.4 6.4 0.00 0.00 0.00 67 1022.3
20260901165707 34 23 6.4 6.4 0.00 0.00 0.00 68 1022.0
20260901165116 34 338 4.8 14.5 0.00 0.00 0.00 67 1022.3
20260901164521 34 0 11.3 11.3 0.00 0.00 0.00 68 1022.3
20260901163939 34 158 1.6 6.4 0.00 0.00 0.00 68 1022.3
20260901163326 35 180 4.8 4.8 0.00 0.00 0.00 68 1022.3
20260901162727 34 225 3.2 3.2 0.00 0.00 0.00 69 1022.3
20260901162125 34 203 3.2 3.2 0.00 0.00 0.00 69 1022.3
20260901161512 34 23 3.2 6.4 0.00 0.00 0.00 68 1022.3
20260901160937 33 180 3.2 4.8 0.00 0.00 0.00 71 1022.3
20260901160344 33 180 3.2 6.4 0.00 0.00 0.00 72 1022.3
20260901155738 33 293 4.8 4.8 0.00 0.00 0.00 70 1022.3
20260901155108 33 158 6.4 6.4 0.00 0.00 0.00 72 1022.3
20260901154540 33 270 8.0 8.0 0.00 0.00 0.00 72 1022.3
20260901153951 33 270 3.2 8.0 0.00 0.00 0.00 73 1022.3
20260901152708 32 203 6.4 6.4 0.00 0.00 0.00 75 1022.3
20260901151536 32 225 4.8 4.8 0.00 0.00 0.00 77 1022.3
20260901150347 32 203 3.2 4.8 0.00 0.00 0.00 78 1022.6
20260901145129 31 203 3.2 3.2 0.00 0.00 0.00 82 1022.6
20260901143932 30 203 3.2 4.8 0.00 0.00 0.00 83 1022.6
20260901143331 30 203 3.2 4.8 0.00 0.00 0.00 86 1022.6
20260901142146 29 180 3.2 3.2 0.00 0.00 0.00 87 1022.6
20260901141522 29 23 3.2 3.2 0.00 0.00 0.00 87 1022.6
20260901140918 28 90 3.2 3.2 0.00 0.00 0.00 92 1022.6
20260901140326 28 158 0.0 3.2 0.00 0.00 0.00 90 1022.6
20260901135741 27 203 0.0 0.0 0.00 0.00 0.00 91 1022.6
20260901133348 26 113 0.0 0.0 0.00 0.00 0.00 97 1023.0
20260901132707 26 135 0.0 0.0 0.00 0.00 0.00 97 1023.0
20260901131519 25 180 0.0 0.0 0.00 0.00 0.00 99 1023.0
20260901130326 24 270 0.0 0.0 0.00 0.00 0.00 99 1023.0
20260901125711 23 248 0.0 0.0 0.00 0.00 0.00 99 1023.0
20260901125114 23 225 0.0 0.0 0.00 0.00 0.00 99 1023.0
20260901124529 23 203 0.0 0.0 0.00 0.00 0.00 99 1023.0
20260901123317 22 203 0.0 0.0 0.00 0.00 0.00 99 1023.0
20260901122721 21 225 0.0 0.0 0.00 0.00 0.00 99 1023.0
20260901122121 21 203 0.0 0.0 0.00 0.00 0.00 99 1023.0
20260901121534 21 225 0.0 0.0 0.00 0.00 0.00 99 1023.0
20260901120934 21 225 0.0 0.0 0.00 0.00 0.00 99 1023.0
20260901120343 21 225 0.0 0.0 0.00 0.00 0.00 99 1023.0
20260901115106 21 225 0.0 0.0 0.00 0.00 0.00 99 1022.6
20260901113931 21 248 0.0 0.0 0.00 0.00 0.00 99 1022.3
20260901113327 21 225 0.0 0.0 0.00 0.00 0.00 99 1022.3
20260901112749 21 248 0.0 0.0 0.00 0.00 0.00 99 1022.3
20260901112143 21 225 0.0 0.0 0.00 0.00 0.00 99 1022.3
20260901111522 21 225 0.0 0.0 0.00 0.00 0.00 99 1022.3
20260901110924 21 203 0.0 0.0 0.00 0.00 0.00 99 1022.3
20260901110308 21 203 0.0 0.0 0.00 0.00 0.00 99 1022.0
20260901105744 21 180 0.0 0.0 0.00 0.00 0.00 99 1022.0
20260901105136 21 203 0.0 0.0 0.00 0.00 0.00 99 1022.0
20260901104533 21 203 0.0 0.0 0.00 0.00 0.00 99 1022.0
20260901103310 21 225 0.0 0.0 0.00 0.00 0.00 99 1022.0
20260901102120 21 203 0.0 0.0 0.00 0.00 0.00 99 1021.6
20260901101526 21 225 0.0 0.0 0.00 0.00 0.00 99 1022.0
20260901100947 21 203 0.0 0.0 0.00 0.00 0.00 99 1021.6
20260901100328 21 203 0.0 0.0 0.00 0.00 0.00 99 1021.6
20260901095141 21 203 0.0 0.0 0.00 0.00 0.00 99 1021.6
20260901094506 21 203 0.0 0.0 0.00 0.00 0.00 99 1021.6
20260901091527 21 225 0.0 0.0 0.00 0.00 0.00 99 1021.3
20260901090328 21 225 0.0 0.0 0.00 0.00 0.00 99 1021.3
20260901085126 21 248 0.0 0.0 0.00 0.00 0.00 99 1021.3
20260901084511 21 203 0.0 0.0 0.00 0.00 0.00 99 1021.3
20260901083928 21 203 0.0 0.0 0.00 0.00 0.00 99 1021.3
20260901083348 21 225 0.0 0.0 0.00 0.00 0.00 99 1021.3
20260901082727 21 203 0.0 0.0 0.00 0.00 0.00 99 1021.3
20260901082127 21 203 0.0 0.0 0.00 0.00 0.00 99 1021.3
20260901081515 21 180 0.0 0.0 0.00 0.00 0.00 99 1021.3
20260901080936 21 225 0.0 0.0 0.00 0.00 0.00 99 1021.3
20260901080350 21 203 0.0 0.0 0.00 0.00 0.00 99 1021.3
20260901075745 21 225 0.0 0.0 0.00 0.00 0.00 99 1021.3
20260901074532 21 270 0.0 0.0 0.00 0.00 0.00 99 1021.3
20260901073907 21 225 0.0 0.0 0.00 0.00 0.00 99 1021.3
20260901073318 21 180 0.0 0.0 0.00 0.00 0.00 99 1021.3
20260901072722 21 203 0.0 0.0 0.00 0.00 0.00 99 1021.3
20260901072130 21 270 0.0 0.0 0.00 0.00 0.00 99 1021.3
20260901071541 22 248 0.0 0.0 0.00 0.00 0.00 99 1020.9
20260901070311 22 203 0.0 0.0 0.00 0.00 0.00 99 1020.9
20260901065724 21 203 0.0 0.0 0.00 0.00 0.00 99 1021.3
20260901065128 21 315 0.0 0.0 0.00 0.00 0.00 99 1021.3
20260901064544 22 203 0.0 0.0 0.00 0.00 0.00 99 1021.3
20260901063940 21 248 0.0 0.0 0.00 0.00 0.00 99 1021.3
20260901062717 22 225 0.0 0.0 0.00 0.00 0.00 99 1021.3
20260901062132 22 225 0.0 0.0 0.00 0.00 0.00 99 1021.3
20260901061535 22 203 0.0 0.0 0.00 0.00 0.00 99 1021.3
20260901060943 22 225 0.0 0.0 0.00 0.00 0.00 99 1021.3
20260901060321 22 203 0.0 0.0 0.00 0.00 0.00 99 1021.3
20260901055735 22 203 0.0 0.0 0.00 0.00 0.00 99 1021.6
20260901054517 22 203 0.0 0.0 0.00 0.00 0.00 99 1021.6
20260901053950 22 203 0.0 0.0 0.00 0.00 0.00 99 1021.6
20260901053345 22 203 0.0 0.0 0.00 0.00 0.00 99 1021.3
20260901051513 22 248 0.0 0.0 0.00 0.00 0.00 99 1021.6
20260901050908 22 270 0.0 0.0 0.00 0.00 0.00 99 1021.6
20260901050325 22 270 0.0 0.0 0.00 0.00 0.00 99 1021.6
20260901045722 22 203 0.0 0.0 0.00 0.00 0.00 99 1021.6
20260901045114 22 225 0.0 0.0 0.00 0.00 0.00 99 1021.6
20260901044510 22 225 0.0 0.0 0.00 0.00 0.00 99 1021.6
20260901042107 22 203 0.0 0.0 0.00 0.00 0.00 99 1022.0
20260901041548 22 203 0.0 0.0 0.00 0.00 0.00 99 1022.0
20260901040347 22 225 0.0 0.0 0.00 0.00 0.00 99 1021.6
20260901035745 23 203 0.0 0.0 0.00 0.00 0.00 99 1021.6
20260901035136 23 225 0.0 0.0 0.00 0.00 0.00 99 1022.0
20260901033909 23 203 0.0 0.0 0.00 0.00 0.00 99 1022.0
20260901033312 23 248 0.0 0.0 0.00 0.00 0.00 99 1022.0
20260901032710 23 203 0.0 0.0 0.00 0.00 0.00 99 1022.0
20260901031510 23 203 0.0 0.0 0.00 0.00 0.00 99 1022.0
20260901030932 23 203 0.0 0.0 0.00 0.00 0.00 99 1022.0
20260901030349 23 203 0.0 0.0 0.00 0.00 0.00 99 1022.0
20260901025131 23 203 0.0 0.0 0.00 0.00 0.00 99 1022.0
20260901024522 23 203 0.0 0.0 0.00 0.00 0.00 99 1022.0
20260901023947 23 203 0.0 0.0 0.00 0.00 0.00 99 1022.0
20260901023313 23 203 0.0 0.0 0.00 0.00 0.00 99 1022.0
20260901022124 24 203 0.0 0.0 0.00 0.00 0.00 99 1022.0
20260901021528 24 225 0.0 0.0 0.00 0.00 0.00 99 1022.0
20260901020927 24 203 0.0 0.0 0.00 0.00 0.00 99 1022.0
20260901015726 24 203 0.0 0.0 0.00 0.00 0.00 99 1021.6
20260901015140 24 203 0.0 0.0 0.00 0.00 0.00 99 1021.6
20260901014526 25 203 0.0 0.0 0.00 0.00 0.00 99 1021.6
20260901013923 25 203 0.0 0.0 0.00 0.00 0.00 99 1021.6
20260901013343 25 225 0.0 0.0 0.00 0.00 0.00 99 1021.6
20260901012709 25 225 0.0 0.0 0.00 0.00 0.00 99 1021.3
20260901012114 25 203 0.0 0.0 0.00 0.00 0.00 99 1021.3
20260901011528 25 225 0.0 0.0 0.00 0.00 0.00 99 1020.9
20260901010940 25 225 0.0 0.0 0.00 0.00 0.00 99 1020.9
20260901005141 25 225 1.6 3.2 0.00 0.00 0.00 99 1020.6
20260901004538 25 203 3.2 3.2 0.00 0.00 0.00 99 1020.6
20260901003923 26 203 0.0 0.0 0.00 0.00 0.00 99 1020.6
20260901003311 26 225 0.0 1.6 0.00 0.00 0.00 99 1020.6
20260901002738 26 203 3.2 3.2 0.00 0.00 0.00 99 1020.6
20260901002150 26 203 0.0 3.2 0.00 0.00 0.00 99 1020.6
20260901001508 26 203 0.0 0.0 0.00 0.00 0.00 99 1020.6
20260901000923 26 248 0.0 3.2 0.00 0.00 0.00 98 1020.6
20260901000321 26 203 1.6 3.2 0.00 0.00 0.00 98 1020.3
20260831235719 27 225 1.6 3.2 0.00 0.00 0.00 97 1020.6
20260831235146 27 248 1.6 3.2 0.00 0.00 0.00 97 1020.6
20260831233339 27 203 4.8 6.4 0.00 0.00 0.00 95 1020.6
20260831232713 28 180 4.8 4.8 0.00 0.00 0.00 92 1020.6
20260831232146 28 180 4.8 4.8 0.00 0.00 0.00 90 1020.6
20260831231544 29 203 3.2 3.2 0.00 0.00 0.00 88 1020.6
20260831230947 30 225 4.8 4.8 0.00 0.00 0.00 84 1020.6
20260831225739 31 225 4.8 4.8 0.00 0.00 0.00 80 1020.6
20260831225115 32 225 3.2 3.2 0.00 0.00 0.00 77 1020.6
20260831224536 31 203 4.8 6.4 0.00 0.00 0.00 78 1020.6
20260831223917 35 203 4.8 4.8 0.00 0.00 0.00 69 1020.6
20260831223336 33 158 4.8 6.4 0.00 0.00 0.00 74 1020.6
20260831222727 33 225 4.8 6.4 0.00 0.00 0.00 73 1020.6
20260831222122 36 225 3.2 4.8 0.00 0.00 0.00 66 1020.6
20260831220918 36 203 3.2 3.2 0.00 0.00 0.00 62 1020.9
20260831215707 36 225 4.8 4.8 0.00 0.00 0.00 62 1020.9
20260831215136 36 270 3.2 3.2 0.00 0.00 0.00 61 1020.9
20260831214533 35 180 3.2 3.2 0.00 0.00 0.00 60 1020.9
20260831213331 36 23 1.6 4.8 0.00 0.00 0.00 57 1020.9
20260831212707 36 225 6.4 6.4 0.00 0.00 0.00 57 1021.3
20260831212135 36 23 0.0 0.0 0.00 0.00 0.00 58 1020.9
20260831211535 36 225 1.6 3.2 0.00 0.00 0.00 59 1020.9
20260831210915 35 225 3.2 6.4 0.00 0.00 0.00 62 1020.9
20260831210325 37 248 4.8 6.4 0.00 0.00 0.00 59 1020.9
20260831205723 36 135 0.0 8.0 0.00 0.00 0.00 60 1020.9
20260831205140 35 248 4.8 4.8 0.00 0.00 0.00 63 1021.3